sat.trackr.live / text

‹ back to catalog

STARLINK-37008

NORAD 68564 · 2026-070Y

PAYLOAD ACTIVE UNKNOWN

§ Identity

Operator
Country
US
Launch date
2026-04-02
Launch site
AFETR
Launch vehicle
Mass (kg)
RCS (m²)

Purposes: comms

External: N2YO · Heavens-Above · Gunter

§ Orbital elements

Epoch: 2026-09-20T04:34:31.314144Z

Period
93.85 min
Inclination
53.1569°
Eccentricity
0.0001739
Mean motion
15.34405852 rev/d
Perigee alt
461.5 km
Apogee alt
463.9 km
Semi-major
6,840.8 km
B*
4.4396e-4
RAAN
174.8713°
Arg perigee
90.5987°
Mean anomaly
269.5215°
Rev number
2,639

§ Raw data

STARLINK-370081 68564U 26070Y   26263.19064021  .00014656  00000+0  44396-3 0  99962 68564  53.1569 174.8713 0001739  90.5987 269.5215 15.34405852 26396

JSON: /api/v1/satellites/68564 · /tle

For live sub-satellite position, see the globe view (requires WebGL).

§ Visibility from observer

Set your observer location to see the next 7 days of passes ≥ 10°. The values pass through the URL so the page stays shareable.

No JS? Fill the form by hand. The geolocation button needs JavaScript.